OBJECT YJ, 69794

Orbit data source: Space-Track

You're viewing an uncataloged RSO

Recently launched and/or uncataloged RSOs may have evolving metadata. Metadata may include the following, but is not limited to: Owner, Manufacturer, Bus, Motor, and Mission.

OBJECT YJ, 69794 is a satellite in LEO that was delivered to and deployed from the ISS. Unknown objects in Earth's orbit typically refer to objects detected orbiting the Earth but have not yet been identified or cataloged. These objects could be anything from previously untracked satellites, spent rocket stages, debris from satellite collisions, or even natural meteoroids temporarily captured by Earth's gravity.

Loading next visibility...
Identifier
69794, 1998-067YJ
Orbit
LEO
Country
Flag of TBDTBD
Related business
Flag of USUniversity of Cincinnati (US)
Manufacturer
Cincinnati
Mission
Operational spacecraft
Bus & Motor
CUBESAT 1U, Unknown motor
Mass
1 kg wet, 1 kg dry
Launch date (UTC)
1998-11-20 (28 years ago)
Launch vehicle
FALCON 9
Launch site
Tyuratam Missile And Space Complex (TTMTR)
Object type
Unknown
Shape & HBR
BOX, 0.1 m
Radar Cross Section
Medium (>0.1 m² and <1 m²)

Expand to show TLE details & history
Last TLE update: 11 hours ago

TLE from 11 hours ago
0 OBJECT YJ
1 69794U 98067YJ  26253.94841861  .00029534  00000-0  46324-3 0  9999
2 69794  51.6297 234.5029 0008174 135.6009 224.5638 15.53401185 10965
Epoch: 2026-09-10T22:45Z
TLE epoch observation values (Epoch: 2026-09-10T22:45:43.367Z)
Latitude
-0.00003°
Longitude
-96.90662°
Altitude
411.499 km
Speed
7.663 km/s
True Right ascension
15h 38m 00s
True Declination
0° 00' 00"
Sunlit
Object was in daylight at epoch
Visualization orbit readout
Latitude
Unknown
Longitude
Unknown
Altitude
Unknown
Speed
Unknown
Apparent Right ascension
Unknown
Apparent Declination
Unknown
Sunlit
N/A
Visualization observer readout
Local Sidereal Time
01:48:51
Azimuth
Unknown
Elevation
Unknown
Doppler factor
Unknown
Orbital elements
Apogee altitude
412.861 km
Perigee altitude
401.768 km
Semi-major axis
6,785.452 km
Eccentricity
0.00082
Inclination
51.6297°
RAAN
234.5029°
Arg. of periapsis
135.6009°
True anomaly
224.49812°
Mean anomaly
224.5638°
Eccentric anomaly
224.53096°
Mean motion
3.88307 °/min
Orbital period
92.71 mins
BSTAR
0.00046324
Loading maneuver chart data...
Computing Atmospheric mass density...
Loading historical data...
Loading historical data...
Loading historical data...
Loading historical data...
Loading historical data...
Loading historical data...
Loading historical data...

Documentation

Showing up to 5 results
|